{"data":{"norad_id":44880,"epoch":"2026-05-25T05:13:42.380832Z","epoch_age_seconds":52670,"freshness":"FRESH","line1":"1 44880U 19093B   26145.21785163  .00002201  00000+0  20266-3 0  9990","line2":"2 44880  97.7812 229.6659 0012414 127.6583 232.5766 14.95710805348627","mean_motion":14.95710805,"eccentricity":0.0012414,"inclination_deg":97.7812,"raan_deg":229.6659,"arg_perigee_deg":127.6583,"mean_anomaly_deg":232.5766,"bstar":0.00020266,"rev_number":34862,"period_min":96.275295677897,"perigee_km":571.52931375981,"apogee_km":588.8053918069,"semimajor_km":6958.3043527834,"source":"CELESTRAK","updated_at":"2026-05-25T13:37:56.038161Z"}}